TimeEST,TemperatureF,Dew PointF,Humidity,Sea Level PressureIn,VisibilityMPH,Wind Direction,Wind SpeedMPH,Gust SpeedMPH,PrecipitationIn,Events,Conditions,WindDirDegrees,DateUTC
1:29 AM,17.6,12.2,79,29.94,8.0,South,8.1,-,N/A,,Overcast,180,2013-12-17 06:29:00
1:53 AM,18.0,14.0,84,29.97,8.0,South,9.2,-,N/A,,Overcast,180,2013-12-17 06:53:00
2:53 AM,19.0,14.0,81,29.98,7.0,South,8.1,-,N/A,,Overcast,190,2013-12-17 07:53:00
3:53 AM,19.9,15.1,81,29.97,7.0,SSW,9.2,-,N/A,,Overcast,210,2013-12-17 08:53:00
4:53 AM,21.9,17.1,82,29.97,6.0,SW,9.2,-,N/A,,Haze,230,2013-12-17 09:53:00
5:53 AM,25.0,21.0,85,29.97,8.0,West,17.3,25.3,N/A,,Overcast,270,2013-12-17 10:53:00
6:00 AM,24.8,21.2,86,29.93,8.0,West,17.3,25.3,N/A,,Overcast,270,2013-12-17 11:00:00
6:53 AM,25.0,21.0,85,29.98,7.0,WSW,15.0,-,N/A,,Overcast,250,2013-12-17 11:53:00
7:53 AM,25.0,21.0,85,29.96,5.0,SW,16.1,-,N/A,,Overcast,230,2013-12-17 12:53:00
8:47 AM,26.6,21.2,80,29.90,1.8,SSW,10.4,-,0.00,Snow,Light Snow,200,2013-12-17 13:47:00
8:53 AM,26.1,21.9,84,29.94,1.8,SSW,8.1,-,0.00,Snow,Light Snow,200,2013-12-17 13:53:00
9:25 AM,26.6,23.0,86,29.87,1.8,South,11.5,-,0.00,Snow,Light Snow,180,2013-12-17 14:25:00
9:38 AM,26.6,21.2,80,29.87,3.0,South,12.7,-,0.00,Snow,Light Snow,180,2013-12-17 14:38:00
9:53 AM,27.0,21.9,81,29.91,4.0,SSW,13.8,-,0.00,Snow,Light Snow,200,2013-12-17 14:53:00
9:57 AM,26.6,21.2,80,29.88,0.8,SSW,11.5,-,0.00,Snow,Light Snow,210,2013-12-17 14:57:00
10:21 AM,26.6,23.0,86,29.88,0.8,SW,11.5,-,0.01,Snow,Light Snow,220,2013-12-17 15:21:00
10:41 AM,26.6,21.2,80,29.88,0.8,SSW,15.0,-,0.01,Snow,Light Snow,210,2013-12-17 15:41:00
10:53 AM,26.1,21.9,84,29.92,0.8,SW,13.8,-,0.01,Snow,Light Snow,220,2013-12-17 15:53:00
11:39 AM,26.6,21.2,80,29.87,1.0,SW,15.0,-,0.01,Snow,Light Snow,230,2013-12-17 16:39:00
11:53 AM,26.1,21.9,84,29.90,1.0,SW,13.8,-,0.01,Snow,Light Snow,220,2013-12-17 16:53:00
12:16 PM,26.6,21.2,80,29.85,1.5,SSW,15.0,-,0.01,Snow,Light Snow,210,2013-12-17 17:16:00
12:40 PM,26.6,21.2,80,29.84,0.8,SW,13.8,-,0.02,Snow,Light Snow,220,2013-12-17 17:40:00
12:53 PM,26.1,21.9,84,29.88,0.8,SSW,11.5,-,0.02,Snow,Light Snow,210,2013-12-17 17:53:00
1:53 PM,28.0,24.1,85,29.86,0.8,SW,11.5,-,0.02,Snow,Light Snow,230,2013-12-17 18:53:00
2:40 PM,30.2,26.6,86,29.83,1.2,West,16.1,-,0.02,Snow,Light Snow,260,2013-12-17 19:40:00
2:53 PM,30.9,26.1,82,29.86,1.0,West,13.8,24.2,0.02,Snow,Light Snow,270,2013-12-17 19:53:00
3:30 PM,30.2,26.6,86,29.84,3.0,West,17.3,27.6,0.00,Snow,Light Snow,270,2013-12-17 20:30:00
3:53 PM,30.9,25.0,79,29.88,1.5,West,15.0,-,0.00,Snow,Light Snow,280,2013-12-17 20:53:00
4:08 PM,30.2,24.8,80,29.86,2.5,West,15.0,-,0.00,Snow,Light Snow,280,2013-12-17 21:08:00
4:53 PM,30.9,26.1,82,29.91,4.0,West,11.5,-,0.00,,Haze,270,2013-12-17 21:53:00
5:15 PM,30.2,24.8,80,29.88,10.0,West,11.5,-,0.00,,Mostly Cloudy,270,2013-12-17 22:15:00
5:53 PM,30.9,21.0,67,29.93,10.0,West,9.2,-,0.00,,Mostly Cloudy,280,2013-12-17 22:53:00
6:53 PM,30.0,19.9,66,29.95,10.0,WNW,8.1,-,N/A,,Mostly Cloudy,290,2013-12-17 23:53:00
7:53 PM,28.9,21.0,72,29.97,10.0,West,3.5,-,0.00,,Overcast,270,2013-12-18 00:53:00
8:48 PM,28.4,21.2,74,29.95,1.8,West,4.6,-,0.00,Snow,Light Snow,270,2013-12-18 01:48:00
8:49 PM,28.4,21.2,74,29.95,2.0,West,5.8,-,0.00,Snow,Light Snow,260,2013-12-18 01:49:00
8:53 PM,28.0,21.9,78,29.99,2.0,WSW,5.8,-,0.00,Snow,Light Snow,250,2013-12-18 01:53:00
9:28 PM,26.6,24.8,93,29.95,4.0,Calm,Calm,-,0.01,Snow,Light Snow,0,2013-12-18 02:28:00
9:53 PM,26.1,23.0,88,29.99,7.0,SSW,3.5,-,0.01,Snow,Light Snow,210,2013-12-18 02:53:00
10:17 PM,26.6,24.8,93,29.95,2.0,SSW,4.6,-,0.00,Snow,Light Snow,210,2013-12-18 03:17:00
10:35 PM,28.4,24.8,86,29.96,4.0,SW,3.5,-,0.00,Snow,Light Snow,230,2013-12-18 03:35:00
10:53 PM,28.9,24.1,82,29.99,5.0,West,9.2,-,0.00,Snow,Light Snow,260,2013-12-18 03:53:00
11:44 PM,28.4,24.8,86,29.97,8.0,WSW,5.8,-,0.00,,Overcast,250,2013-12-18 04:44:00
11:53 PM,28.0,24.1,85,30.01,9.0,West,4.6,-,0.00,,Overcast,260,2013-12-18 04:53:00